Regional Weather Roundup
Issued by NWS

Home | Current Version | Previous Version | Graphics & Text | Print | Product List | Glossary Off
Versions: 1 2 3 4 5 6 7 8 9 10 11 12 13 14 15 16 17 18 19 20 21 22 23 24 25 26 27 28 29 30 31 32 33 34 35 36 37 38 39 40 41 42 43 44 45 46 47 48 49 50

000
ASUS43 KTOP 290108
RWRKS

WEATHER ROUNDUP FOR KANSAS
NATIONAL WEATHER SERVICE GOODLAND KS
800 PM CDT MON JUL 28 2014

NOTE:  "FAIR" INDICATES FEW OR NO CLOUDS BELOW 12,000 FEET WITH NO
SIGNIFICANT WEATHER AND/OR OBSTRUCTIONS TO VISIBILITY.

KSZ001>006-013>018-027>032-041>047-290200-
NORTHWEST KANSAS

CITY           SKY/WX    TMP DP  RH WIND       PRES   REMARKS
GOODLAND       PTSUNNY   78  52  40 S14       30.24S
HAYS           CLEAR     84  57  39 SE12      30.17S
HILL CITY      CLEAR     87  56  34 SE9       30.16S
RUSSELL        CLEAR     82  58  43 SE3       30.16S
$$

KSZ061>065-074>080-084>089-290200-
SOUTHWEST KANSAS

CITY           SKY/WX    TMP DP  RH WIND       PRES   REMARKS
DODGE CITY     PTCLDY    80  55  42 S10       30.21S
ELKHART          N/A     72  60  66 S8          N/A
GARDEN CITY    PTCLDY    77  57  50 SW12      30.22F
GREAT BEND     PTCLDY    82  57  42 SE8       30.16R
LIBERAL        MOCLDY    75  55  50 SW9       30.25S
PRATT          CLEAR     81  57  44 SW7       30.19S
$$

KSZ066>073-081>083-090>101-290200-
SOUTHEAST KANSAS

CITY           SKY/WX    TMP DP  RH WIND       PRES   REMARKS
CHANUTE        CLEAR     78  56  46 N6        30.13S
COFFEYVILLE    CLEAR     82  59  45 N6        30.11S
HUTCHINSON     CLEAR     82  59  45 NE5       30.16S
MEDICINE LODGE   N/A     82  60  47 W3        30.15S
NEWTON         CLEAR     81  54  39 NE7       30.19S
PARSONS        CLEAR     80  59  48 N3        30.13F
WICHITA INTL   PTCLDY    83  55  38 N9        30.14F
WICHITA JABRA  CLEAR     81  57  43 NE5       30.14F
WICHITA MCCONL CLEAR     81  56  41 NE6       30.15S
WINFIELD       CLEAR     84  57  39 NE7       30.14F
$$

KSZ007>012-019>026-033>040-048>060-102>105-290200-
NORTHEAST KANSAS

CITY           SKY/WX    TMP DP  RH WIND       PRES   REMARKS
CONCORDIA      CLEAR     76  56  49 N10       30.19S
EMPORIA        CLEAR     79  52  38 N8        30.15S
LAWRENCE       CLEAR     76  59  55 N7        30.15S
MANHATTAN      CLEAR     80  55  42 N8        30.16S
MARYSVILLE     CLEAR     73  55  53 N6        30.19S
OLATHE IND     CLEAR     75  57  53 N8        30.16S
OLATHE EXE     PTCLDY    76  57  51 N12       30.15R
SALINA         CLEAR     84  54  35 NE12      30.16S
TOPEKA BILLARD CLEAR     78  57  48 N8        30.16S
TOPEKA FORBES  CLEAR     78  57  48 N8        30.16R
$$



USA.gov is the U.S. government's official web portal to all federal, state and local government web resources and services.